WA2GUG Weather Reports


time (UTC)temp
C
wind
direction
speed
KPH
gust
KPH
rain 1hr
cm
rain 24hr
cm
rain mn
cm
humidity
%
barometer
mb
20260504014418 5 214 0.0 0.0 0.00 0.00 0.00 99 1008.0
20260504013918 5 225 0.0 0.0 0.00 0.00 0.00 99 1007.2
20260504013418 5 225 0.0 0.0 0.00 0.00 0.00 99 1007.1
20260504012918 5 225 0.0 0.0 0.00 0.00 0.00 99 1007.0
20260504012418 6 225 0.0 0.0 0.00 0.00 0.00 99 1007.0
20260504011918 6 225 0.0 0.0 0.00 0.00 0.00 99 1007.0
20260504011418 6 232 0.0 0.0 0.00 0.00 0.00 99 1007.0
20260504010918 6 195 0.0 0.0 0.00 0.00 0.00 99 1007.0
20260504010418 7 180 0.0 0.0 0.00 0.00 0.00 99 1007.0
20260504005918 7 180 0.0 0.0 0.00 0.00 0.00 99 1007.0
20260504005418 7 164 0.0 0.0 0.00 0.00 0.00 99 1007.0
20260504004918 7 177 0.0 0.0 0.00 0.00 0.00 99 1007.0
20260504004418 8 159 0.0 0.0 0.00 0.00 0.00 99 1007.0
20260504003918 8 159 0.0 0.0 0.00 0.00 0.00 99 1007.0
20260504003418 9 137 0.0 0.0 0.00 0.00 0.00 99 1007.0
20260504002918 9 355 0.0 0.0 0.00 0.00 0.00 99 1007.0
20260504002418 9 80 0.0 0.0 0.00 0.00 0.00 99 1007.0
20260504001918 10 102 0.0 0.0 0.00 0.00 0.00 99 1006.2
20260504001418 10 79 0.0 0.0 0.00 0.00 0.00 99 1007.0
20260504000918 10 47 0.0 1.6 0.00 0.00 0.00 99 1006.2
20260504000418 10 28 0.0 3.2 0.00 0.00 0.00 99 1007.0
20260503235918 11 355 0.0 3.2 0.00 0.00 0.00 99 1006.2
20260503235418 11 122 0.0 0.0 0.00 0.00 0.00 99 1007.0
20260503234918 11 82 0.0 0.0 0.00 0.00 0.00 99 1006.2
20260503234418 11 75 0.0 0.0 0.00 0.00 0.00 99 1007.0
20260503233918 11 54 0.0 0.0 0.00 0.00 0.00 99 1006.2
20260503233418 12 49 0.0 0.0 0.00 0.00 0.00 99 1007.0
20260503232918 12 53 0.0 0.0 0.00 0.00 0.00 99 1006.2
20260503232418 12 45 0.0 6.4 0.00 0.00 0.00 99 1007.0
20260503231918 12 47 0.0 6.4 0.00 0.00 0.00 99 1006.2
20260503231418 12 34 0.0 3.2 0.00 0.00 0.00 99 1007.0
20260503230918 12 36 0.0 6.4 0.00 0.00 0.00 99 1006.2
20260503230418 12 53 0.0 6.4 0.00 0.00 0.00 99 1006.2
20260503225918 12 5 0.0 8.0 0.00 0.00 0.00 99 1006.1
20260503225418 12 86 1.6 8.0 0.00 0.00 0.00 99 1006.1
20260503224918 12 39 0.0 6.4 0.00 0.00 0.00 99 1006.0
20260503224418 12 45 0.0 6.4 0.00 0.00 0.00 99 1006.0
20260503223918 12 74 1.6 6.4 0.00 0.00 0.00 99 1006.0
20260503223418 13 44 0.0 6.4 0.00 0.00 0.00 99 1006.0
20260503222918 13 55 1.6 6.4 0.00 0.00 0.00 99 1006.0
20260503222418 13 34 0.0 6.4 0.00 0.00 0.00 99 1006.0
20260503221918 13 45 0.0 6.4 0.00 0.00 0.00 99 1006.0
20260503221418 13 87 0.0 6.4 0.00 0.00 0.00 99 1006.0
20260503220918 15 42 0.0 12.9 0.00 0.00 0.00 99 1006.0
20260503220418 16 68 1.6 12.9 0.00 0.00 0.00 99 1006.0
20260503215918 17 76 0.0 4.8 0.00 0.00 0.00 99 1006.0
20260503215418 18 86 0.0 4.8 0.00 0.00 0.00 99 1006.0
20260503214918 18 45 0.0 12.9 0.00 0.00 0.00 99 1006.0
20260503214418 19 45 1.6 12.9 0.00 0.00 0.00 99 1006.0
20260503213918 20 46 0.0 8.0 0.00 0.00 0.00 99 1006.0
20260503213418 20 41 3.2 16.1 0.00 0.00 0.00 99 1006.0
20260503212918 20 7 4.8 16.1 0.00 0.00 0.00 99 1006.0
20260503212418 20 37 0.0 11.3 0.00 0.00 0.00 99 1006.0
20260503211918 21 53 1.6 11.3 0.00 0.00 0.00 99 1006.0
20260503211418 21 49 0.0 8.0 0.00 0.00 0.00 99 1006.0
20260503210918 21 50 0.0 8.0 0.00 0.00 0.00 99 1006.0
20260503210418 22 40 0.0 8.0 0.00 0.00 0.00 99 1006.0
20260503205918 22 47 0.0 4.8 0.00 0.00 0.00 99 1006.0
20260503205418 22 51 0.0 4.8 0.00 0.00 0.00 99 1006.0
20260503204918 22 43 0.0 1.6 0.00 0.00 0.00 99 1006.0
20260503204418 21 97 0.0 3.2 0.00 0.00 0.00 99 1006.0
20260503203918 21 70 0.0 8.0 0.00 0.00 0.00 99 1006.0
20260503203418 22 40 0.0 8.0 0.00 0.00 0.00 99 1006.0
20260503202918 22 43 0.0 0.0 0.00 0.00 0.00 99 1006.0
20260503202418 21 91 0.0 4.8 0.00 0.00 0.00 99 1006.0
20260503201918 21 44 0.0 12.9 0.00 0.00 0.00 99 1006.0
20260503201418 21 48 1.6 12.9 0.00 0.00 0.00 99 1006.0
20260503200918 20 45 0.0 9.7 0.00 0.00 0.00 99 1006.0
20260503200418 20 43 1.6 9.7 0.00 0.00 0.00 99 1006.0
20260503195918 20 82 0.0 1.6 0.00 0.00 0.00 99 1006.0
20260503195418 20 84 0.0 14.5 0.00 0.00 0.00 99 1006.0
20260503194918 20 72 0.0 14.5 0.00 0.00 0.00 99 1006.1
20260503194418 20 41 0.0 12.9 0.00 0.00 0.00 99 1006.2
20260503193917 21 3 0.0 12.9 0.00 0.00 0.00 99 1006.1
20260503193418 20 85 0.0 1.6 0.00 0.00 0.00 99 1006.2
20260503192918 19 80 0.0 1.6 0.00 0.00 0.00 99 1007.0
20260503192417 19 45 0.0 4.8 0.00 0.00 0.00 99 1006.2
20260503191418 21 129 1.6 9.7 0.00 0.00 0.00 99 1006.2
20260503190918 21 83 0.0 3.2 0.00 0.00 0.00 99 1006.2
20260503190417 20 38 0.0 9.7 0.00 0.00 0.00 99 1006.2
20260503185917 19 7 0.0 14.5 0.00 0.00 0.00 99 1007.0
20260503185417 17 42 0.0 14.5 0.00 0.00 0.00 99 1006.2
20260503184917 16 48 0.0 8.0 0.00 0.00 0.00 99 1007.0
20260503184417 16 92 0.0 8.0 0.00 0.00 0.00 99 1006.2
20260503183917 15 90 0.0 3.2 0.00 0.00 0.00 99 1007.0
20260503183418 14 45 0.0 1.6 0.00 0.00 0.00 99 1007.0
20260503182917 14 79 0.0 6.4 0.00 0.00 0.00 99 1007.0
20260503182417 15 48 0.0 8.0 0.00 0.00 0.00 99 1007.0
20260503181917 16 48 0.0 16.1 0.00 0.00 0.00 99 1007.0
20260503181417 17 74 1.6 16.1 0.00 0.00 0.00 99 1007.0
20260503180917 16 83 0.0 8.0 0.00 0.00 0.00 99 1007.0
20260503180417 13 5 0.0 11.3 0.00 0.00 0.00 99 1007.0
20260503175917 13 42 1.6 11.3 0.00 0.00 0.00 99 1007.0
20260503175417 13 47 0.0 8.0 0.00 0.00 0.00 99 1007.0
20260503174917 13 35 0.0 8.0 0.00 0.00 0.00 99 1007.0
20260503174417 14 83 0.0 6.4 0.00 0.00 0.00 99 1007.0
20260503173917 15 36 0.0 6.4 0.00 0.00 0.00 99 1007.0
20260503173418 13 35 0.0 6.4 0.00 0.00 0.00 99 1007.0
20260503172917 13 40 0.0 8.0 0.00 0.00 0.00 99 1007.0
20260503172417 13 45 0.0 8.0 0.00 0.00 0.00 99 1007.0
20260503171917 13 71 0.0 9.7 0.00 0.00 0.00 99 1007.0
20260503171417 12 43 1.6 9.7 0.00 0.00 0.00 99 1007.0
20260503170917 13 39 0.0 6.4 0.00 0.00 0.00 99 1007.0
20260503170417 13 309 0.0 6.4 0.00 0.00 0.00 99 1007.0
20260503150917 12 72 0.0 9.7 0.00 0.00 0.00 99 1007.1
20260503150417 13 45 0.0 6.4 0.00 0.00 0.00 99 1007.0
20260503131417 10 42 0.0 4.8 0.00 0.00 0.00 99 1008.0
20260503130417 10 46 0.0 16.1 0.00 0.00 0.00 99 1008.0
20260503110417 5 131 0.0 8.0 0.00 0.00 0.00 99 1007.1
20260503090417 2 88 0.0 0.0 0.00 0.00 0.00 99 1007.0
20260503081417 1 135 0.0 0.0 0.00 0.00 0.00 99 1008.0
20260503080917 1 91 0.0 0.0 0.00 0.00 0.00 99 1008.0
20260503080417 1 174 0.0 0.0 0.00 0.00 0.00 99 1008.0
20260503072917 1 72 0.0 0.0 0.00 0.00 0.00 99 1008.0
20260503072417 1 87 0.0 0.0 0.00 0.00 0.00 99 1008.0
20260503071917 1 136 0.0 0.0 0.00 0.00 0.00 99 1008.0
20260503071417 1 132 0.0 0.0 0.00 0.00 0.00 99 1008.0
20260503070917 1 93 0.0 4.8 0.00 0.00 0.00 99 1008.0
20260503070417 1 102 0.0 4.8 0.00 0.00 0.00 99 1008.0
20260503054917 -1 22 0.0 0.0 0.00 0.00 0.00 99 1008.0
20260503054417 -1 87 0.0 0.0 0.00 0.00 0.00 99 1008.0
20260503053917 -1 179 0.0 0.0 0.00 0.00 0.00 99 1008.0
20260503053417 -1 148 0.0 0.0 0.00 0.00 0.00 99 1008.0
20260503052917 -1 148 0.0 0.0 0.00 0.00 0.00 99 1008.0
20260503052417 -1 155 0.0 0.0 0.00 0.00 0.00 99 1008.0
20260503051917 -1 151 0.0 0.0 0.00 0.00 0.00 99 1008.0
20260503051417 -1 141 0.0 0.0 0.00 0.00 0.00 99 1008.0
20260503050917 0 139 0.0 0.0 0.00 0.00 0.00 99 1008.1
20260503050417 0 151 0.0 0.0 0.00 0.00 0.00 99 1009.0
20260503045916 0 175 0.0 0.0 0.00 0.00 0.00 99 1009.0
20260503045416 0 159 0.0 0.0 0.00 0.00 0.00 99 1009.0
20260503044917 0 172 0.0 0.0 0.00 0.00 0.00 99 1008.2
20260503044416 0 131 0.0 0.0 0.00 0.00 0.00 99 1009.0
20260503043916 0 144 0.0 1.6 0.00 0.00 0.00 99 1009.0
20260503043417 0 132 0.0 1.6 0.00 0.00 0.00 99 1009.0
20260503042916 0 111 0.0 0.0 0.00 0.00 0.00 99 1008.2
20260503042416 0 96 0.0 0.0 0.00 0.00 0.00 99 1009.0
20260503041916 0 118 0.0 0.0 0.00 0.00 0.00 99 1009.0
20260503041416 0 154 0.0 0.0 0.00 0.00 0.00 99 1009.0
20260503040916 0 213 0.0 0.0 0.00 0.00 0.00 99 1009.0
20260503040416 0 186 0.0 0.0 0.00 0.00 0.00 99 1009.0
20260503035916 0 139 0.0 0.0 0.00 0.00 0.00 99 1009.0
20260503035416 0 129 0.0 0.0 0.00 0.00 0.00 99 1009.0
20260503034916 0 124 0.0 0.0 0.00 0.00 0.00 99 1009.0
20260503034416 0 134 0.0 0.0 0.00 0.00 0.00 99 1009.0
20260503033916 0 147 0.0 0.0 0.00 0.00 0.00 99 1009.0
20260503033417 0 130 0.0 0.0 0.00 0.00 0.00 99 1009.0
20260503032917 0 131 0.0 0.0 0.00 0.00 0.00 99 1009.0
20260503032416 0 121 0.0 0.0 0.00 0.00 0.00 99 1009.0
20260503031916 0 169 0.0 0.0 0.00 0.00 0.00 99 1009.0
20260503031416 0 116 0.0 0.0 0.00 0.00 0.00 99 1009.0
20260503030916 0 137 0.0 0.0 0.00 0.00 0.00 99 1009.0
20260503030416 0 140 0.0 0.0 0.00 0.00 0.00 99 1009.0
20260503025916 1 152 0.0 0.0 0.00 0.00 0.00 99 1009.0
20260503025416 1 147 0.0 0.0 0.00 0.00 0.00 99 1009.0
20260503024916 1 167 0.0 0.0 0.00 0.00 0.00 99 1009.0
20260503024416 1 117 0.0 0.0 0.00 0.00 0.00 99 1009.0
20260503023916 1 128 0.0 0.0 0.00 0.00 0.00 99 1009.0
20260503023416 2 107 0.0 0.0 0.00 0.00 0.00 99 1009.0
20260503022916 2 150 0.0 0.0 0.00 0.00 0.00 99 1009.0
20260503022416 2 129 0.0 0.0 0.00 0.00 0.00 99 1009.0
20260503021916 2 129 0.0 0.0 0.00 0.00 0.00 99 1009.0
20260503021416 2 47 0.0 0.0 0.00 0.00 0.00 99 1009.0
20260503020916 2 106 0.0 0.0 0.00 0.00 0.00 99 1009.0
20260503020416 2 94 0.0 0.0 0.00 0.00 0.00 99 1009.0
20260503015916 2 111 0.0 0.0 0.00 0.00 0.00 99 1009.0
20260503015416 2 111 0.0 0.0 0.00 0.00 0.00 99 1009.0
20260503014916 2 136 0.0 0.0 0.00 0.00 0.00 99 1009.0